IGO493H VABB-VECC

Flight info

Callsign IGO493H
Flight time 2h 5m
Altitude 37000
Route ANOLI2A NONEN Q19 KAMLO W108 NNP G450 JJS JJS2A
Aircraft A20N/M-SDE2E3FGHIRWXY/LB1

Departure

Time 2026-05-06 20:40
Airport Chhatrapati Shivaji Maharaj International Airport (VABB)

Arrival

Time 2026-05-06 22:45
Airport Netaji Subhash Chandra Bose International Airport (VECC)
Time Latitude Longitude Altitude Speed Heading
2026-05-06 20:22 19.09157 72.85366 49 ft 0 kts
2026-05-06 20:30 19.09143 72.85366 49 ft 2 kts
2026-05-06 20:30 19.09110 72.85363 45 ft 2 kts 12°
2026-05-06 20:30 19.09095 72.85357 49 ft 2 kts 53°
2026-05-06 20:31 19.09090 72.85343 49 ft 1 kts 91°
2026-05-06 20:31 19.09090 72.85342 43 ft 0 kts 90°
2026-05-06 20:33 19.09090 72.85346 49 ft 2 kts 90°
2026-05-06 20:33 19.09089 72.85375 49 ft 6 kts 99°
2026-05-06 20:33 19.09052 72.85401 49 ft 8 kts 172°
2026-05-06 20:33 19.09024 72.85444 49 ft 9 kts 91°
2026-05-06 20:34 19.09025 72.85521 49 ft 12 kts 89°
2026-05-06 20:34 19.09027 72.85622 49 ft 15 kts 88°
2026-05-06 20:34 19.09028 72.85742 48 ft 18 kts 90°
2026-05-06 20:34 19.09031 72.85868 48 ft 16 kts 89°
2026-05-06 20:35 19.09033 72.85993 48 ft 18 kts 90°
2026-05-06 20:35 19.09035 72.86136 48 ft 20 kts 89°
2026-05-06 20:35 19.09036 72.86290 48 ft 22 kts 88°
2026-05-06 20:35 19.09038 72.86451 48 ft 22 kts 89°
2026-05-06 20:36 19.09041 72.86615 49 ft 23 kts 89°
2026-05-06 20:36 19.09043 72.86776 50 ft 22 kts 89°
2026-05-06 20:36 19.09046 72.86941 50 ft 22 kts 88°
2026-05-06 20:36 19.09047 72.87112 49 ft 24 kts 88°
2026-05-06 20:37 19.09050 72.87294 49 ft 26 kts 89°
2026-05-06 20:37 19.09052 72.87439 48 ft 13 kts 89°
2026-05-06 20:37 19.09053 72.87544 49 ft 16 kts 89°
2026-05-06 20:37 19.09055 72.87670 48 ft 18 kts 89°
2026-05-06 20:38 19.09048 72.87786 47 ft 13 kts 121°
2026-05-06 20:38 19.08970 72.87807 47 ft 12 kts 178°
2026-05-06 20:38 19.08888 72.87789 48 ft 11 kts 246°
2026-05-06 20:38 19.08886 72.87752 48 ft 0 kts 268°
2026-05-06 20:39 19.08885 72.87716 47 ft 28 kts 268°
2026-05-06 20:39 19.08877 72.87238 50 ft 99 kts 269°
2026-05-06 20:39 19.08864 72.86305 48 ft 152 kts 269°
2026-05-06 20:39 19.08851 72.85077 355 ft 170 kts 270°
2026-05-06 20:40 19.08804 72.83827 957 ft 171 kts 269°
2026-05-06 20:40 19.08752 72.82546 1501 ft 181 kts 272°
2026-05-06 20:40 19.09048 72.81216 1928 ft 197 kts 304°
2026-05-06 20:40 19.10122 72.80256 2351 ft 214 kts 340°
2026-05-06 20:41 19.11641 72.80099 2792 ft 233 kts 12°
2026-05-06 20:41 19.13255 72.80632 3289 ft 254 kts 21°
2026-05-06 20:41 19.14945 72.81317 3985 ft 264 kts 20°
2026-05-06 20:41 19.16704 72.81934 4800 ft 270 kts 16°
2026-05-06 20:42 19.18531 72.82467 5618 ft 276 kts 13°
2026-05-06 20:42 19.20402 72.82943 6368 ft 283 kts 12°
2026-05-06 20:42 19.22365 72.83407 7186 ft 287 kts 12°
2026-05-06 20:42 19.24339 72.83860 7979 ft 292 kts 12°
2026-05-06 20:43 19.26336 72.84317 8826 ft 296 kts 13°
2026-05-06 20:43 19.28358 72.84784 9665 ft 300 kts 13°
2026-05-06 20:43 19.30433 72.85267 10251 ft 314 kts 13°
2026-05-06 20:43 19.32613 72.85779 10494 ft 337 kts 13°
2026-05-06 20:44 19.34973 72.86334 10876 ft 354 kts 13°
2026-05-06 20:44 19.37386 72.86900 11641 ft 357 kts 13°
2026-05-06 20:44 19.39831 72.87474 12421 ft 361 kts 13°
2026-05-06 20:44 19.42283 72.88088 13192 ft 365 kts 19°
2026-05-06 20:45 19.44543 72.89323 13898 ft 367 kts 38°
2026-05-06 20:45 19.46281 72.91292 14566 ft 370 kts 58°
2026-05-06 20:45 19.47327 72.93791 15181 ft 374 kts 76°
2026-05-06 20:45 19.47905 72.96500 15781 ft 380 kts 78°
2026-05-06 20:46 19.48426 72.99258 16377 ft 385 kts 78°
2026-05-06 20:46 19.48957 73.02063 16964 ft 390 kts 78°
2026-05-06 20:46 19.49510 73.04893 17534 ft 395 kts 77°
2026-05-06 20:46 19.50085 73.07763 18094 ft 400 kts 77°
2026-05-06 20:47 19.50690 73.10658 18571 ft 404 kts 76°
2026-05-06 20:47 19.51312 73.13583 19054 ft 409 kts 76°
2026-05-06 20:47 19.51942 73.16536 19505 ft 414 kts 76°
2026-05-06 20:47 19.52372 73.18560 19824 ft 417 kts 75°
2026-05-06 20:48 19.53011 73.21573 20286 ft 421 kts 75°
2026-05-06 20:48 19.53654 73.24613 20748 ft 426 kts 75°
2026-05-06 20:48 19.54304 73.27694 21196 ft 430 kts 75°
2026-05-06 20:48 19.54951 73.30765 21629 ft 435 kts 75°
2026-05-06 20:49 19.55613 73.33912 22065 ft 439 kts 75°
2026-05-06 20:49 19.56195 73.37156 22490 ft 446 kts 80°
2026-05-06 20:49 19.56512 73.40398 22899 ft 450 kts 81°
2026-05-06 20:49 19.56839 73.43755 23313 ft 454 kts 81°
2026-05-06 20:50 19.57166 73.47076 23472 ft 464 kts 81°
2026-05-06 20:50 19.57508 73.50515 23572 ft 475 kts 81°
2026-05-06 20:50 19.57856 73.54033 23686 ft 484 kts 81°
2026-05-06 20:50 19.58207 73.57593 23970 ft 487 kts 82°
2026-05-06 20:51 19.58558 73.61181 24357 ft 488 kts 82°
2026-05-06 20:51 19.58965 73.64798 24720 ft 488 kts 78°
2026-05-06 20:51 19.59733 73.68256 24977 ft 489 kts 70°
2026-05-06 20:51 19.60937 73.71614 25335 ft 487 kts 62°
2026-05-06 20:52 19.62491 73.74807 25632 ft 487 kts 58°
2026-05-06 20:52 19.64104 73.77974 25954 ft 489 kts 58°
2026-05-06 20:52 19.65717 73.81161 26251 ft 492 kts 58°
2026-05-06 20:52 19.67334 73.84364 26549 ft 494 kts 59°
2026-05-06 20:53 19.68959 73.87588 26808 ft 496 kts 59°
2026-05-06 20:53 19.70589 73.90824 27082 ft 498 kts 59°
2026-05-06 20:53 19.72221 73.94064 27368 ft 500 kts 59°
2026-05-06 20:53 19.73862 73.97326 27608 ft 502 kts 59°
2026-05-06 20:54 19.75498 74.00603 27848 ft 504 kts 61°
2026-05-06 20:54 19.76897 74.04033 28102 ft 508 kts 67°
2026-05-06 20:54 19.78147 74.07548 28337 ft 510 kts 67°
2026-05-06 20:54 19.79413 74.11078 28570 ft 512 kts 67°
2026-05-06 20:55 19.80681 74.14606 28795 ft 513 kts 67°
2026-05-06 20:55 19.81955 74.18150 29008 ft 515 kts 67°
2026-05-06 20:55 19.83235 74.21712 29206 ft 516 kts 67°
2026-05-06 20:55 19.84515 74.25281 29384 ft 517 kts 67°
2026-05-06 20:56 19.85793 74.28850 29541 ft 519 kts 67°
2026-05-06 20:56 19.87079 74.32443 29694 ft 520 kts 67°
2026-05-06 20:56 19.88367 74.36041 29823 ft 521 kts 67°
2026-05-06 20:56 19.89653 74.39639 29937 ft 523 kts 67°
2026-05-06 20:57 19.90945 74.43258 30040 ft 524 kts 67°
2026-05-06 20:57 19.93529 74.50502 30247 ft 525 kts 67°
2026-05-06 20:57 19.94822 74.54130 30374 ft 525 kts 67°
2026-05-06 20:58 19.96113 74.57757 30515 ft 525 kts 67°
2026-05-06 20:58 19.97405 74.61387 30662 ft 524 kts 67°
2026-05-06 20:58 19.98693 74.65011 30820 ft 524 kts 67°
2026-05-06 20:58 19.99981 74.68634 30973 ft 524 kts 67°
2026-05-06 20:59 20.01276 74.72257 31144 ft 523 kts 66°
2026-05-06 20:59 20.02599 74.75855 31296 ft 523 kts 66°
2026-05-06 20:59 20.03936 74.79454 31467 ft 523 kts 66°
2026-05-06 20:59 20.05269 74.83048 31619 ft 522 kts 66°
2026-05-06 21:00 20.06598 74.86642 31778 ft 522 kts 66°
2026-05-06 21:00 20.07922 74.90232 31927 ft 522 kts 66°
2026-05-06 21:00 20.09244 74.93828 32094 ft 521 kts 66°
2026-05-06 21:00 20.10563 74.97418 32242 ft 521 kts 66°
2026-05-06 21:01 20.11877 75.00999 32390 ft 521 kts 66°
2026-05-06 21:01 20.13192 75.04584 32528 ft 520 kts 66°
2026-05-06 21:01 20.14503 75.08161 32676 ft 520 kts 66°
2026-05-06 21:01 20.15822 75.11762 32809 ft 520 kts 66°
2026-05-06 21:02 20.17135 75.15347 32948 ft 520 kts 66°
2026-05-06 21:02 20.18599 75.18857 33081 ft 517 kts 58°
2026-05-06 21:02 20.20583 75.22016 33209 ft 513 kts 50°
2026-05-06 21:02 20.22726 75.25050 33333 ft 512 kts 50°
2026-05-06 21:03 20.24867 75.28082 33482 ft 512 kts 50°
2026-05-06 21:03 20.27009 75.31118 33688 ft 510 kts 50°
2026-05-06 21:03 20.29106 75.34094 34376 ft 495 kts 50°
2026-05-06 21:03 20.31154 75.37006 34931 ft 488 kts 50°
2026-05-06 21:04 20.33160 75.39858 35190 ft 487 kts 50°
2026-05-06 21:04 20.35048 75.42863 35392 ft 491 kts 59°
2026-05-06 21:04 20.36387 75.46218 35589 ft 495 kts 71°
2026-05-06 21:04 20.37093 75.49808 35793 ft 497 kts 83°
2026-05-06 21:05 20.37379 75.53486 36032 ft 497 kts 85°
2026-05-06 21:05 20.37623 75.57151 36267 ft 497 kts 85°
2026-05-06 21:05 20.37868 75.60820 36510 ft 496 kts 85°
2026-05-06 21:05 20.38114 75.64485 36758 ft 496 kts 85°
2026-05-06 21:06 20.38361 75.68150 36991 ft 495 kts 85°
2026-05-06 21:06 20.38609 75.71808 37230 ft 495 kts 85°
2026-05-06 21:06 20.38859 75.75464 37460 ft 494 kts 85°
2026-05-06 21:06 20.39110 75.79111 37686 ft 494 kts 85°
2026-05-06 21:07 20.39359 75.82758 37909 ft 493 kts 84°
2026-05-06 21:07 20.39789 75.86387 38105 ft 492 kts 79°
2026-05-06 21:07 20.40450 75.89958 38306 ft 491 kts 76°
2026-05-06 21:07 20.41266 75.93483 38496 ft 490 kts 73°
2026-05-06 21:08 20.42162 75.96995 38663 ft 489 kts 73°
2026-05-06 21:08 20.43082 76.00478 38782 ft 490 kts 72°
2026-05-06 21:08 20.44041 76.03990 38792 ft 494 kts 72°
2026-05-06 21:09 20.46020 76.11056 38792 ft 501 kts 72°
2026-05-06 21:09 20.48011 76.18219 38786 ft 506 kts 72°
2026-05-06 21:10 20.49993 76.25413 38786 ft 506 kts 72°
2026-05-06 21:10 20.51975 76.32622 38787 ft 506 kts 72°
2026-05-06 21:11 20.53954 76.39836 38786 ft 507 kts 72°
2026-05-06 21:11 20.55930 76.47051 38783 ft 507 kts 72°
2026-05-06 21:12 20.57906 76.54275 38785 ft 507 kts 72°
2026-05-06 21:12 20.59878 76.61502 38785 ft 507 kts 72°
2026-05-06 21:13 20.61849 76.68735 38786 ft 508 kts 72°
2026-05-06 21:13 20.63819 76.75978 38784 ft 508 kts 72°
2026-05-06 21:14 20.65786 76.83225 38784 ft 508 kts 72°
2026-05-06 21:14 20.67752 76.90480 38781 ft 509 kts 72°
2026-05-06 21:15 20.69714 76.97734 38783 ft 509 kts 72°
2026-05-06 21:15 20.71674 77.04994 38783 ft 509 kts 72°
2026-05-06 21:16 20.73636 77.12271 38784 ft 509 kts 72°
2026-05-06 21:16 20.75594 77.19549 38784 ft 510 kts 72°
2026-05-06 21:17 20.77537 77.26786 38785 ft 510 kts 72°
2026-05-06 21:17 20.79466 77.33985 38785 ft 493 kts 72°
2026-05-06 21:18 20.81334 77.40968 38796 ft 491 kts 72°
2026-05-06 21:18 20.83222 77.48029 38798 ft 494 kts 72°
2026-05-06 21:19 20.85102 77.55078 38802 ft 494 kts 72°
2026-05-06 21:19 20.86938 77.62165 38804 ft 494 kts 73°
2026-05-06 21:20 20.88732 77.69259 38805 ft 495 kts 73°
2026-05-06 21:20 20.90542 77.76362 38801 ft 495 kts 73°
2026-05-06 21:21 20.92354 77.83459 38809 ft 495 kts 73°
2026-05-06 21:21 20.94168 77.90574 38809 ft 496 kts 73°
2026-05-06 21:22 20.95977 77.97683 38812 ft 496 kts 73°
2026-05-06 21:22 20.97786 78.04807 38815 ft 496 kts 73°
2026-05-06 21:23 20.99589 78.11931 38815 ft 496 kts 73°
2026-05-06 21:23 21.01400 78.19099 38818 ft 502 kts 73°
2026-05-06 21:24 21.03232 78.26365 38816 ft 510 kts 73°
2026-05-06 21:24 21.05088 78.33742 38820 ft 516 kts 73°
2026-05-06 21:25 21.06949 78.41157 38819 ft 516 kts 73°
2026-05-06 21:25 21.08808 78.48575 38825 ft 516 kts 73°
2026-05-06 21:26 21.10654 78.55957 38825 ft 516 kts 73°
2026-05-06 21:26 21.12506 78.63377 38827 ft 517 kts 73°
2026-05-06 21:27 21.14361 78.70824 38829 ft 517 kts 73°
2026-05-06 21:27 21.16212 78.78270 38827 ft 517 kts 73°
2026-05-06 21:28 21.18059 78.85715 38829 ft 518 kts 73°
2026-05-06 21:28 21.19903 78.93164 38830 ft 518 kts 73°
2026-05-06 21:29 21.21748 79.00631 38831 ft 518 kts 73°
2026-05-06 21:29 21.23590 79.08099 38831 ft 518 kts 73°
2026-05-06 21:30 21.25430 79.15579 38829 ft 518 kts 73°
2026-05-06 21:30 21.27265 79.23047 38825 ft 519 kts 73°
2026-05-06 21:31 21.29100 79.30536 38824 ft 519 kts 73°
2026-05-06 21:31 21.30931 79.38024 38824 ft 519 kts 73°
2026-05-06 21:32 21.32760 79.45515 38822 ft 519 kts 74°
2026-05-06 21:32 21.35190 79.55494 38822 ft 520 kts 74°
2026-05-06 21:33 21.37013 79.62999 38822 ft 520 kts 74°
2026-05-06 21:33 21.38833 79.70509 38823 ft 520 kts 74°
2026-05-06 21:34 21.40649 79.78015 38821 ft 520 kts 74°
2026-05-06 21:34 21.42463 79.85531 38821 ft 520 kts 74°
2026-05-06 21:35 21.44274 79.93049 38820 ft 520 kts 74°
2026-05-06 21:35 21.46083 80.00573 38820 ft 520 kts 74°
2026-05-06 21:36 21.47886 80.08092 38820 ft 521 kts 74°
2026-05-06 21:36 21.49691 80.15633 38821 ft 521 kts 74°
2026-05-06 21:37 21.51491 80.23169 38819 ft 521 kts 74°
2026-05-06 21:37 21.53289 80.30712 38824 ft 521 kts 74°
2026-05-06 21:38 21.55085 80.38263 38828 ft 522 kts 74°
2026-05-06 21:38 21.56866 80.45769 38829 ft 522 kts 74°
2026-05-06 21:39 21.58660 80.53341 38835 ft 523 kts 74°
2026-05-06 21:39 21.60446 80.60900 38831 ft 523 kts 74°
2026-05-06 21:40 21.62235 80.68488 38826 ft 524 kts 74°
2026-05-06 21:40 21.64019 80.76071 38836 ft 524 kts 74°
2026-05-06 21:41 21.65802 80.83664 38836 ft 524 kts 74°
2026-05-06 21:41 21.67581 80.91257 38828 ft 524 kts 75°
2026-05-06 21:42 21.69357 80.98854 38836 ft 524 kts 74°
2026-05-06 21:42 21.71131 81.06462 38832 ft 524 kts 74°
2026-05-06 21:43 21.72904 81.14079 38822 ft 525 kts 75°
2026-05-06 21:43 21.74671 81.21688 38826 ft 525 kts 75°
2026-05-06 21:44 21.76437 81.29310 38820 ft 525 kts 75°
2026-05-06 21:44 21.78198 81.36929 38816 ft 525 kts 75°
2026-05-06 21:45 21.79935 81.44461 38812 ft 525 kts 75°
2026-05-06 21:45 21.81643 81.51881 38808 ft 525 kts 75°
2026-05-06 21:46 21.83393 81.59500 38807 ft 525 kts 75°
2026-05-06 21:46 21.85141 81.67129 38810 ft 525 kts 75°
2026-05-06 21:47 21.86884 81.74753 38801 ft 524 kts 75°
2026-05-06 21:47 21.88626 81.82388 38802 ft 524 kts 75°
2026-05-06 21:48 21.90348 81.89955 38801 ft 524 kts 75°
2026-05-06 21:48 21.92079 81.97578 38803 ft 524 kts 75°
2026-05-06 21:49 21.93806 82.05199 38805 ft 524 kts 75°
2026-05-06 21:49 21.95530 82.12825 38807 ft 524 kts 75°
2026-05-06 21:50 21.97250 82.20451 38810 ft 523 kts 75°
2026-05-06 21:50 21.98966 82.28076 38803 ft 524 kts 75°
2026-05-06 21:51 22.00669 82.35664 38807 ft 523 kts 75°
2026-05-06 21:51 22.02376 82.43285 38807 ft 524 kts 75°
2026-05-06 21:52 22.04081 82.50918 38809 ft 524 kts 75°
2026-05-06 21:52 22.05784 82.58555 38812 ft 524 kts 76°
2026-05-06 21:53 22.07481 82.66182 38817 ft 524 kts 76°
2026-05-06 21:53 22.09177 82.73825 38811 ft 524 kts 76°
2026-05-06 21:54 22.10871 82.81477 38816 ft 524 kts 76°
2026-05-06 21:54 22.12559 82.89119 38820 ft 524 kts 76°
2026-05-06 21:55 22.14245 82.96768 38819 ft 524 kts 76°
2026-05-06 21:55 22.15929 83.04428 38818 ft 525 kts 76°
2026-05-06 21:56 22.17608 83.12087 38824 ft 525 kts 76°
2026-05-06 21:56 22.19285 83.19747 38833 ft 525 kts 76°
2026-05-06 21:57 22.20959 83.27415 38836 ft 525 kts 76°
2026-05-06 21:57 22.22629 83.35088 38841 ft 525 kts 76°
2026-05-06 21:58 22.24295 83.42752 38846 ft 525 kts 76°
2026-05-06 21:58 22.25957 83.50422 38852 ft 525 kts 76°
2026-05-06 21:59 22.27616 83.58097 38854 ft 524 kts 76°
2026-05-06 21:59 22.29259 83.65713 38863 ft 525 kts 76°
2026-05-06 22:00 22.30909 83.73383 38867 ft 524 kts 76°
2026-05-06 22:00 22.32556 83.81052 38863 ft 525 kts 76°
2026-05-06 22:01 22.34199 83.88727 38868 ft 524 kts 76°
2026-05-06 22:01 22.35841 83.96414 38867 ft 526 kts 76°
2026-05-06 22:02 22.37480 84.04108 38869 ft 525 kts 76°
2026-05-06 22:02 22.39111 84.11779 38878 ft 525 kts 77°
2026-05-06 22:03 22.40742 84.19473 38876 ft 524 kts 77°
2026-05-06 22:03 22.42367 84.27155 38879 ft 524 kts 77°
2026-05-06 22:04 22.43987 84.34832 38882 ft 524 kts 77°
2026-05-06 22:04 22.45603 84.42509 38884 ft 524 kts 77°
2026-05-06 22:05 22.47215 84.50186 38888 ft 523 kts 77°
2026-05-06 22:05 22.48821 84.57851 38888 ft 523 kts 77°
2026-05-06 22:06 22.50426 84.65538 38891 ft 524 kts 77°
2026-05-06 22:06 22.52028 84.73224 38895 ft 524 kts 77°
2026-05-06 22:07 22.53626 84.80912 38897 ft 524 kts 77°
2026-05-06 22:07 22.55224 84.88621 38896 ft 524 kts 77°
2026-05-06 22:08 22.56817 84.96322 38903 ft 525 kts 77°
2026-05-06 22:08 22.58405 85.04021 38903 ft 525 kts 77°
2026-05-06 22:09 22.59992 85.11732 38907 ft 525 kts 78°
2026-05-06 22:09 22.61575 85.19444 38912 ft 525 kts 77°
2026-05-06 22:10 22.63153 85.27155 38916 ft 525 kts 77°
2026-05-06 22:10 22.64732 85.34891 38921 ft 526 kts 77°
2026-05-06 22:11 22.66307 85.42620 38915 ft 525 kts 78°
2026-05-06 22:11 22.67876 85.50344 38918 ft 526 kts 78°
2026-05-06 22:12 22.69443 85.58079 38917 ft 525 kts 78°
2026-05-06 22:12 22.71004 85.65806 38914 ft 526 kts 78°
2026-05-06 22:13 22.72553 85.73488 38913 ft 525 kts 78°
2026-05-06 22:13 22.74107 85.81217 38909 ft 525 kts 78°
2026-05-06 22:14 22.75661 85.88950 38906 ft 525 kts 78°
2026-05-06 22:14 22.77212 85.96685 38898 ft 525 kts 78°
2026-05-06 22:15 22.78756 86.04408 38897 ft 525 kts 78°
2026-05-06 22:15 22.80299 86.12144 38895 ft 525 kts 78°
2026-05-06 22:16 22.81636 86.19910 38893 ft 524 kts 84°
2026-05-06 22:16 22.82538 86.27728 38893 ft 524 kts 83°
2026-05-06 22:17 22.83493 86.35547 38889 ft 523 kts 83°
2026-05-06 22:17 22.84433 86.43379 38582 ft 524 kts 83°
2026-05-06 22:18 22.84900 86.47305 38325 ft 525 kts 83°
2026-05-06 22:18 22.85365 86.51231 38074 ft 526 kts 83°
2026-05-06 22:18 22.85831 86.55175 37801 ft 527 kts 83°
2026-05-06 22:18 22.86296 86.59119 37428 ft 529 kts 83°
2026-05-06 22:19 22.86762 86.63072 36882 ft 528 kts 83°
2026-05-06 22:19 22.87225 86.67019 36220 ft 527 kts 83°
2026-05-06 22:19 22.87687 86.70958 35412 ft 529 kts 84°
2026-05-06 22:19 22.88146 86.74879 34557 ft 533 kts 84°
2026-05-06 22:20 22.88612 86.78882 33677 ft 536 kts 84°
2026-05-06 22:20 22.88929 86.81598 33047 ft 538 kts 84°
2026-05-06 22:20 22.89550 86.86940 31852 ft 539 kts 84°
2026-05-06 22:20 22.89867 86.89666 31248 ft 540 kts 84°
2026-05-06 22:21 22.90488 86.95031 30175 ft 540 kts 85°
2026-05-06 22:21 22.90801 86.97744 29786 ft 536 kts 85°
2026-05-06 22:21 22.91260 87.01718 29383 ft 525 kts 85°
2026-05-06 22:21 22.91708 87.05627 29116 ft 524 kts 85°
2026-05-06 22:22 22.92159 87.09568 28858 ft 526 kts 85°
2026-05-06 22:22 22.92607 87.13490 28602 ft 523 kts 85°
2026-05-06 22:22 22.93053 87.17397 28193 ft 521 kts 85°
2026-05-06 22:22 22.93495 87.21275 27745 ft 513 kts 85°
2026-05-06 22:23 22.93930 87.25091 27210 ft 507 kts 85°
2026-05-06 22:23 22.94248 87.28875 26622 ft 500 kts 90°
2026-05-06 22:23 22.94384 87.32621 26002 ft 495 kts 90°
2026-05-06 22:23 22.94530 87.36362 25107 ft 497 kts 89°
2026-05-06 22:24 22.94679 87.40108 24391 ft 495 kts 89°
2026-05-06 22:24 22.94827 87.43797 23623 ft 486 kts 89°
2026-05-06 22:24 22.94970 87.47437 22662 ft 478 kts 89°
2026-05-06 22:24 22.95107 87.50958 21765 ft 469 kts 89°
2026-05-06 22:25 22.95244 87.54509 20941 ft 463 kts 89°
2026-05-06 22:25 22.95375 87.57933 20358 ft 457 kts 89°
2026-05-06 22:25 22.95505 87.61355 19764 ft 451 kts 89°
2026-05-06 22:25 22.95633 87.64735 19177 ft 446 kts 89°
2026-05-06 22:26 22.95758 87.68074 18594 ft 441 kts 89°
2026-05-06 22:26 22.95881 87.71380 17994 ft 436 kts 89°
2026-05-06 22:26 22.96002 87.74645 17332 ft 431 kts 89°
2026-05-06 22:26 22.96121 87.77873 16700 ft 425 kts 89°
2026-05-06 22:27 22.96238 87.81062 16063 ft 421 kts 89°
2026-05-06 22:27 22.96353 87.84212 15446 ft 416 kts 89°
2026-05-06 22:27 22.96467 87.87327 14847 ft 411 kts 89°
2026-05-06 22:27 22.96578 87.90421 14256 ft 407 kts 89°
2026-05-06 22:28 22.96688 87.93471 13690 ft 403 kts 89°
2026-05-06 22:28 22.96795 87.96490 13053 ft 398 kts 89°
2026-05-06 22:28 22.96901 87.99476 12440 ft 394 kts 89°
2026-05-06 22:28 22.97004 88.02428 11845 ft 390 kts 88°
2026-05-06 22:29 22.97106 88.05357 11258 ft 386 kts 88°
2026-05-06 22:29 22.97206 88.08250 10682 ft 382 kts 88°
2026-05-06 22:29 22.97305 88.11108 10237 ft 375 kts 88°
2026-05-06 22:29 22.97401 88.13880 10060 ft 360 kts 88°
2026-05-06 22:30 22.97494 88.16557 9734 ft 351 kts 88°
2026-05-06 22:30 22.97584 88.19179 9358 ft 344 kts 88°
2026-05-06 22:30 22.97673 88.21750 8919 ft 339 kts 88°
2026-05-06 22:30 22.97759 88.24274 8438 ft 329 kts 88°
2026-05-06 22:31 22.97845 88.26715 7989 ft 318 kts 86°
2026-05-06 22:31 22.98339 88.28995 7554 ft 306 kts 63°
2026-05-06 22:31 22.99593 88.30785 7130 ft 294 kts 38°
2026-05-06 22:31 23.01347 88.31776 6744 ft 280 kts 11°
2026-05-06 22:32 23.03234 88.31986 6404 ft 268 kts
2026-05-06 22:32 23.05076 88.32081 6032 ft 261 kts
2026-05-06 22:32 23.06867 88.32173 5669 ft 254 kts
2026-05-06 22:32 23.08553 88.32527 5304 ft 249 kts 24°
2026-05-06 22:33 23.09873 88.33681 4942 ft 243 kts 55°
2026-05-06 22:33 23.10458 88.35352 4588 ft 236 kts 86°
2026-05-06 22:33 23.10515 88.37110 4234 ft 230 kts 90°
2026-05-06 22:33 23.10494 88.38826 3909 ft 225 kts 92°
2026-05-06 22:34 23.10448 88.40503 3601 ft 220 kts 92°
2026-05-06 22:34 23.10405 88.42145 3287 ft 215 kts 92°
2026-05-06 22:34 23.10149 88.43710 2970 ft 208 kts 120°
2026-05-06 22:34 23.09192 88.44802 2662 ft 197 kts 155°
2026-05-06 22:35 23.07976 88.45404 2528 ft 191 kts 159°
2026-05-06 22:35 23.06737 88.45970 2511 ft 192 kts 161°
2026-05-06 22:35 23.05460 88.46372 2511 ft 192 kts 169°
2026-05-06 22:35 23.04147 88.46597 2520 ft 191 kts 178°
2026-05-06 22:36 23.02824 88.46666 2509 ft 190 kts 180°
2026-05-06 22:36 23.01505 88.46721 2510 ft 190 kts 180°
2026-05-06 22:36 23.00180 88.46777 2508 ft 190 kts 180°
2026-05-06 22:36 22.98863 88.46831 2513 ft 190 kts 180°
2026-05-06 22:37 22.97535 88.46889 2511 ft 190 kts 180°
2026-05-06 22:37 22.96214 88.46948 2513 ft 190 kts 180°
2026-05-06 22:37 22.94894 88.47002 2513 ft 190 kts 180°
2026-05-06 22:37 22.94015 88.47037 2516 ft 190 kts 180°
2026-05-06 22:38 22.93671 88.47052 2514 ft 190 kts 180°
2026-05-06 22:38 22.92655 88.47097 2514 ft 190 kts 180°
2026-05-06 22:38 22.91333 88.47155 2516 ft 189 kts 179°
2026-05-06 22:39 22.90011 88.47221 2516 ft 191 kts 176°
2026-05-06 22:39 22.88694 88.47343 2521 ft 188 kts 180°
2026-05-06 22:39 22.87452 88.47330 2519 ft 169 kts 185°
2026-05-06 22:39 22.86323 88.47231 2523 ft 163 kts 188°
2026-05-06 22:40 22.85190 88.47100 2519 ft 164 kts 188°
2026-05-06 22:40 22.84055 88.46967 2522 ft 164 kts 188°
2026-05-06 22:40 22.82926 88.46834 2522 ft 163 kts 188°
2026-05-06 22:40 22.81795 88.46701 2526 ft 164 kts 188°
2026-05-06 22:41 22.79529 88.46433 2448 ft 165 kts 188°
2026-05-06 22:41 22.78400 88.46301 2245 ft 162 kts 188°
2026-05-06 22:41 22.77282 88.46169 2041 ft 161 kts 188°
2026-05-06 22:42 22.76172 88.46039 1839 ft 160 kts 188°
2026-05-06 22:42 22.75083 88.45910 1638 ft 159 kts 188°
2026-05-06 22:42 22.73982 88.45780 1433 ft 156 kts 188°
2026-05-06 22:42 22.72943 88.45659 1224 ft 145 kts 188°
2026-05-06 22:43 22.71972 88.45544 1051 ft 141 kts 188°
2026-05-06 22:43 22.70982 88.45427 855 ft 143 kts 187°
2026-05-06 22:43 22.69996 88.45312 670 ft 143 kts 187°
2026-05-06 22:43 22.69002 88.45194 473 ft 144 kts 186°
2026-05-06 22:44 22.68001 88.45077 240 ft 145 kts 186°
2026-05-06 22:44 22.67009 88.44963 61 ft 143 kts 186°
2026-05-06 22:44 22.66073 88.44853 29 ft 114 kts 186°
2026-05-06 22:44 22.65482 88.44785 28 ft 57 kts 186°
2026-05-06 22:45 22.65266 88.44760 28 ft 18 kts 186°
2026-05-06 22:45 22.65123 88.44744 29 ft 23 kts 186°
2026-05-06 22:45 22.64961 88.44697 25 ft 25 kts 204°
2026-05-06 22:45 22.64820 88.44602 29 ft 14 kts 214°
2026-05-06 22:46 22.64729 88.44535 28 ft 17 kts 214°
2026-05-06 22:46 22.64618 88.44476 28 ft 19 kts 188°
2026-05-06 22:46 22.64483 88.44459 28 ft 21 kts 186°
2026-05-06 22:46 22.64329 88.44441 28 ft 23 kts 186°
2026-05-06 22:47 22.64190 88.44406 29 ft 12 kts 232°
2026-05-06 22:47 22.64166 88.44325 28 ft 11 kts 249°
2026-05-06 22:47 22.64102 88.44300 28 ft 12 kts 187°
2026-05-06 22:47 22.64018 88.44285 28 ft 12 kts 205°
2026-05-06 22:48 22.64010 88.44200 28 ft 14 kts 277°
2026-05-06 22:48 22.64061 88.44128 28 ft 14 kts
2026-05-06 22:48 22.64161 88.44139 28 ft 11 kts
2026-05-06 22:48 22.64196 88.44144 28 ft 6 kts
2026-05-06 22:49 22.64217 88.44112 28 ft 5 kts 276°
2026-05-06 22:49 22.64219 88.44096 28 ft 2 kts 275°
2026-05-06 22:49 22.64221 88.44069 28 ft 2 kts 275°
2026-05-06 22:49 22.64222 88.44056 28 ft 0 kts 275°